Retour au catalogue

CZ-6A DEB

ActifSSO
NORAD 54475·DEBRIS·🇨🇳 China

Lancé Nov 11, 2022 depuis Taiyuan Satellite Launch Center

Loading…

Prochains Passages (prochaines 24 heures)

TLE

FraisSource: Space-Track

Époque: Sep 14, 2026, 04:44 UTC

1 54475U 22151HB  26257.19750374  .00001818  00000-0  31961-3 0  9995
2 54475  98.5932 335.5421 0131622 328.0514  31.2754 14.63539383203691

Suivez CZ-6A DEB en temps réel avec AllMySat

Download on the App Store